Time,TemperatureF,DewpointF,PressureIn,WindDirection,WindDirectionDegrees,WindSpeedMPH,WindSpeedGustMPH,Humidity,HourlyPrecipIn,Conditions,Clouds,dailyrainin,SoftwareType,DateUTC
2013-04-12 00:22:00,33.0,21.0,29.86,North,-999,0.0,0.0,60,0.00,,,-99.99,,2013-04-12 07:22:00,
2013-04-12 00:32:00,33.0,21.0,29.86,North,-999,0.0,0.0,60,0.00,,,-99.99,,2013-04-12 07:32:00,
2013-04-12 00:42:00,33.0,21.0,29.86,North,-999,0.0,0.0,60,0.00,,,-99.99,,2013-04-12 07:42:00,
2013-04-12 01:22:00,31.0,20.0,29.88,North,-999,0.0,0.0,64,0.00,,,-99.99,,2013-04-12 08:22:00,
2013-04-12 01:32:00,31.0,20.0,29.88,North,-999,0.0,0.0,64,0.00,,,-99.99,,2013-04-12 08:32:00,
2013-04-12 02:22:00,30.0,20.0,29.88,North,-999,0.0,0.0,65,0.00,,,-99.99,,2013-04-12 09:22:00,
2013-04-12 02:32:00,30.0,20.0,29.88,North,-999,0.0,0.0,65,0.00,,,-99.99,,2013-04-12 09:32:00,
2013-04-12 02:43:00,30.0,20.0,29.88,North,-999,0.0,0.0,65,0.00,,,-99.99,,2013-04-12 09:43:00,
2013-04-12 03:23:00,29.0,19.0,29.88,North,-999,0.0,0.0,65,0.00,,,-99.99,,2013-04-12 10:23:00,
2013-04-12 03:33:00,29.0,19.0,29.88,North,-999,0.0,0.0,65,0.00,,,-99.99,,2013-04-12 10:33:00,
2013-04-12 04:22:00,28.0,18.0,29.88,North,-999,0.0,0.0,66,0.00,,,-99.99,,2013-04-12 11:22:00,
2013-04-12 04:32:00,28.0,18.0,29.88,North,-999,0.0,0.0,66,0.00,,,-99.99,,2013-04-12 11:32:00,
2013-04-12 04:42:00,28.0,18.0,29.88,North,-999,0.0,0.0,66,0.00,,,-99.99,,2013-04-12 11:42:00,
2013-04-12 05:22:00,27.0,18.0,29.89,North,-999,0.0,0.0,69,0.00,,,-99.99,,2013-04-12 12:22:00,
2013-04-12 05:32:00,27.0,18.0,29.89,North,-999,0.0,0.0,69,0.00,,,-99.99,,2013-04-12 12:32:00,
2013-04-12 06:22:00,27.0,18.0,29.92,North,-999,0.0,0.0,68,0.00,,,-99.99,,2013-04-12 13:22:00,
2013-04-12 06:32:00,27.0,18.0,29.92,North,-999,0.0,0.0,68,0.00,,,-99.99,,2013-04-12 13:32:00,
2013-04-12 06:42:00,27.0,18.0,29.92,North,-999,0.0,0.0,68,0.00,,,-99.99,,2013-04-12 13:42:00,
2013-04-12 08:22:00,32.0,20.0,30.01,WSW,240,1.0,3.0,60,0.00,,,-99.99,,2013-04-12 15:22:00,
2013-04-12 08:33:00,32.0,20.0,30.01,WSW,240,1.0,3.0,60,0.00,,,-99.99,,2013-04-12 15:33:00,
2013-04-12 09:23:00,47.0,25.0,29.92,North,0,0.0,2.0,41,0.00,,,-99.99,,2013-04-12 16:23:00,
2013-04-12 09:33:00,47.0,25.0,29.92,North,0,0.0,2.0,41,0.00,,,-99.99,,2013-04-12 16:33:00,
2013-04-12 10:22:00,56.0,23.0,29.89,NE,40,5.0,12.0,27,0.00,,,-99.99,,2013-04-12 17:22:00,
2013-04-12 10:33:00,56.0,23.0,29.89,NE,40,5.0,12.0,27,0.00,,,-99.99,,2013-04-12 17:33:00,
2013-04-12 10:44:00,56.0,23.0,29.89,NE,40,5.0,12.0,27,0.00,,,-99.99,,2013-04-12 17:44:00,
2013-04-12 12:26:00,57.0,22.0,29.96,NE,50,7.0,16.0,26,0.00,,,-99.99,,2013-04-12 19:26:00,
2013-04-12 12:32:00,57.0,22.0,29.96,NE,50,7.0,16.0,26,0.00,,,-99.99,,2013-04-12 19:32:00,
2013-04-12 12:42:00,57.0,22.0,29.96,NE,50,7.0,16.0,26,0.00,,,-99.99,,2013-04-12 19:42:00,
2013-04-12 13:22:00,58.0,22.0,29.95,NE,40,6.0,14.0,25,0.00,,,-99.99,,2013-04-12 20:22:00,
2013-04-12 13:32:00,58.0,22.0,29.95,NE,40,6.0,14.0,25,0.00,,,-99.99,,2013-04-12 20:32:00,
2013-04-12 13:42:00,58.0,22.0,29.95,NE,40,6.0,14.0,25,0.00,,,-99.99,,2013-04-12 20:42:00,
2013-04-12 14:22:00,60.0,21.0,29.94,NE,50,6.0,11.0,22,0.00,,,-99.99,,2013-04-12 21:22:00,
2013-04-12 14:32:00,60.0,21.0,29.94,NE,50,6.0,11.0,22,0.00,,,-99.99,,2013-04-12 21:32:00,
2013-04-12 14:42:00,60.0,21.0,29.94,NE,50,6.0,11.0,22,0.00,,,-99.99,,2013-04-12 21:42:00,
2013-04-12 15:22:00,61.0,20.0,29.91,North,350,5.0,10.0,20,0.00,,,-99.99,,2013-04-12 22:22:00,
2013-04-12 15:32:00,61.0,20.0,29.91,North,350,5.0,10.0,20,0.00,,,-99.99,,2013-04-12 22:32:00,
2013-04-12 15:42:00,61.0,20.0,29.91,North,350,5.0,10.0,20,0.00,,,-99.99,,2013-04-12 22:42:00,
2013-04-12 16:22:00,61.0,20.0,29.91,East,90,6.0,13.0,20,0.00,,,-99.99,,2013-04-12 23:22:00,
2013-04-12 16:32:00,61.0,20.0,29.91,East,90,6.0,13.0,20,0.00,,,-99.99,,2013-04-12 23:32:00,
2013-04-12 16:42:00,61.0,20.0,29.91,East,90,6.0,13.0,20,0.00,,,-99.99,,2013-04-12 23:42:00,
2013-04-12 17:22:00,60.0,19.0,29.92,North,10,4.0,11.0,20,0.00,,,-99.99,,2013-04-13 00:22:00,
2013-04-12 17:32:00,60.0,19.0,29.92,North,10,4.0,11.0,20,0.00,,,-99.99,,2013-04-13 00:32:00,
2013-04-12 17:42:00,60.0,19.0,29.92,North,10,4.0,11.0,20,0.00,,,-99.99,,2013-04-13 00:42:00,
2013-04-12 18:22:00,60.0,21.0,29.92,North,360,3.0,6.0,22,0.00,,,-99.99,,2013-04-13 01:22:00,
2013-04-12 18:32:00,60.0,21.0,29.92,North,360,3.0,6.0,22,0.00,,,-99.99,,2013-04-13 01:32:00,
2013-04-12 18:42:00,60.0,21.0,29.92,North,360,3.0,6.0,22,0.00,,,-99.99,,2013-04-13 01:42:00,
2013-04-12 19:22:00,57.0,27.0,29.93,WSW,250,2.0,8.0,32,0.00,,,-99.99,,2013-04-13 02:22:00,
2013-04-12 19:32:00,57.0,27.0,29.93,WSW,250,2.0,8.0,32,0.00,,,-99.99,,2013-04-13 02:32:00,
2013-04-12 19:42:00,57.0,27.0,29.93,WSW,250,2.0,8.0,32,0.00,,,-99.99,,2013-04-13 02:42:00,
2013-04-12 20:22:00,52.0,28.0,29.87,North,0,0.0,2.0,39,0.00,,,-99.99,,2013-04-13 03:22:00,
2013-04-12 20:33:00,52.0,28.0,29.87,North,0,0.0,2.0,39,0.00,,,-99.99,,2013-04-13 03:33:00,
2013-04-12 20:42:00,52.0,28.0,29.87,North,0,0.0,2.0,39,0.00,,,-99.99,,2013-04-13 03:42:00,
2013-04-12 21:23:00,49.0,26.0,29.84,North,-999,0.0,0.0,41,0.00,,,-99.99,,2013-04-13 04:23:00,
2013-04-12 21:33:00,49.0,26.0,29.84,North,-999,0.0,0.0,41,0.00,,,-99.99,,2013-04-13 04:33:00,
2013-04-12 21:42:00,49.0,26.0,29.84,North,-999,0.0,0.0,41,0.00,,,-99.99,,2013-04-13 04:42:00,
2013-04-12 22:22:00,41.0,22.0,29.91,North,-999,0.0,0.0,47,0.00,,,-99.99,,2013-04-13 05:22:00,
2013-04-12 22:32:00,41.0,22.0,29.91,North,-999,0.0,0.0,47,0.00,,,-99.99,,2013-04-13 05:32:00,
2013-04-12 22:42:00,41.0,22.0,29.91,North,-999,0.0,0.0,47,0.00,,,-99.99,,2013-04-13 05:42:00,
2013-04-12 23:23:00,38.0,22.0,29.93,North,-999,0.0,0.0,51,0.00,,,-99.99,,2013-04-13 06:23:00,
2013-04-12 23:34:00,38.0,22.0,29.93,North,-999,0.0,0.0,51,0.00,,,-99.99,,2013-04-13 06:34:00,